Weather Roundup
Issued by NWS Chicago, IL

Home | Current Version | Previous Version | Graphics & Text | Print | Product List | Glossary On
Versions: 1 2 3 4 5 6 7 8 9 10 11 12 13 14 15 16 17 18 19 20 21 22 23 24 25 26 27 28 29 30 31 32 33 34 35 36 37 38 39 40 41 42 43 44 45 46 47 48 49 50
000
NZUS59 KLOT 200212
HRRLOT

CHICAGO AREA WEATHER ROUNDUP
NATIONAL WEATHER SERVICE CHICAGO/ROMEOVILLE IL
800 PM CST SUN FEB 19 2017

NOTE: "FAIR" INDICATES FEW OR NO CLOUDS BELOW 12,000 FEET WITH NO
SIGNIFICANT WEATHER AND/OR OBSTRUCTIONS TO VISIBILITY.

* THESE STATIONS ARE NOT UNDER NWS QUALITY CONTROL. THEY ALSO MAY NOT
  REPORT WEATHER SUCH AS PRECIPITATION OR FOG.

ILZ005-006-012>014-019>023-200300-
NORTHEAST ILLINOIS

CITY           SKY/WX    TMP DP  RH WIND       PRES   REMARKS
OHARE          CLOUDY    48  31  51 SE6       30.07R
MIDWAY         MOCLDY    49  30  48 E3        30.08S
AURORA         PTCLDY    50  40  68 SE7       30.06R
LANSING*       CLEAR     48  39  69 S5        30.08F
JOLIET*        CLOUDY    55  45  69 SE3       30.07S
WAUKEGAN       CLOUDY    37  31  78 CALM      30.08R
DUPAGE AIRPORT PTCLDY    53  37  54 SE5       30.06R
WHEELING       CLOUDY    44  30  57 CALM      30.09S
KANKAKEE*      CLOUDY    51  42  71 CALM      30.09R
MORRIS*        PTCLDY    53  43  67 CALM      30.06R
LEWIS AIRPORT* CLOUDY    51  44  78 SE7       30.07R
NORTHERLY ISL    N/A     40  31  70 CALM        N/A
$$

WIZ051-052-058>065-066-070>072-200300-
SOUTHEAST WISCONSIN

CITY           SKY/WX    TMP DP  RH WIND       PRES   REMARKS
MILWAUKEE      MOCLDY    41  31  67 SE3       30.09R
KENOSHA*       CLOUDY    37  30  75 E3        30.09R
RACINE*        CLOUDY    40  31  70 SE3       30.10S
WAUKESHA       CLEAR     39  28  65 E7        30.09R
WEST BEND      PTCLDY    36  30  80 E5        30.09R
$$

INZ001>003-010>013-019-020-200300-
NORTHWEST INDIANA

CITY           SKY/WX    TMP DP  RH WIND       PRES   REMARKS
GARY*          PTCLDY    39  32  75 SE3       30.09S
MICHIGAN CITY* NOT AVBL
RENSSELAER*    NOT AVBL
VALPARAISO     CLOUDY    47  36  65 E3        30.10
$$

LMZ740>746-200300-
SOUTHERN LAKE MICHIGAN

STATION/POSITION TIME  SKY/WX   TEMP WIND        PRES    VSBY
                                AIR  DIR/SP/G
                 (UTC)          (F)  (DEG/KT/KT) (MB)    (MI)
HARRISON CRIB    0140            44  160/  7/  9   N/A
BURNHAM HARBOR   0200            41   CALM  /  2   N/A
CALUMET HARBOR   0148            43   70/  4/  8 1018.0F
BURNS HARBOR     0140            49   CALM  /  2 1019.3S
MICHIGAN CITY    0140            53  110/  5/  5   N/A
$$

ABBREVIATIONS USED IN REMARKS
   TC - TEMPERATURE IN CELSIUS
  WCI - WIND CHILL INDEX
   HX - HEAT INDEX
  VSB - VISIBILITY
$$




USA.gov is the U.S. government's official web portal to all federal, state and local government web resources and services.